TimeEDT,TemperatureF,Dew PointF,Humidity,Sea Level PressureIn,VisibilityMPH,Wind Direction,Wind SpeedMPH,Gust SpeedMPH,PrecipitationIn,Events,Conditions,WindDirDegrees,DateUTC
12:14 AM,43.0,31.3,63,30.13,10.0,NW,11.5,18.4,N/A,,Mostly Cloudy,320,2012-10-07 04:14:00
12:34 AM,42.8,31.5,64,30.12,10.0,NW,8.1,-,N/A,,Overcast,310,2012-10-07 04:34:00
12:54 AM,42.8,30.2,61,30.12,10.0,WNW,10.4,-,N/A,,Mostly Cloudy,300,2012-10-07 04:54:00
1:14 AM,43.0,30.6,62,30.12,10.0,NNW,9.2,16.1,N/A,,Scattered Clouds,330,2012-10-07 05:14:00
1:34 AM,43.0,31.5,64,30.11,10.0,NNW,8.1,-,N/A,,Scattered Clouds,330,2012-10-07 05:34:00
1:54 AM,43.3,32.0,64,30.11,10.0,WNW,11.5,17.3,N/A,,Mostly Cloudy,300,2012-10-07 05:54:00
2:14 AM,42.6,30.0,61,30.11,10.0,NW,8.1,-,N/A,,Mostly Cloudy,310,2012-10-07 06:14:00
2:34 AM,42.6,29.3,59,30.11,10.0,WNW,8.1,-,N/A,,Clear,300,2012-10-07 06:34:00
2:54 AM,42.8,31.1,63,30.11,10.0,NW,8.1,-,N/A,,Clear,310,2012-10-07 06:54:00
3:14 AM,43.0,31.6,64,30.10,10.0,NNW,8.1,-,N/A,,Scattered Clouds,330,2012-10-07 07:14:00
3:34 AM,43.2,31.5,63,30.10,10.0,North,8.1,-,N/A,,Scattered Clouds,350,2012-10-07 07:34:00
3:54 AM,42.8,32.5,67,30.09,10.0,NNW,11.5,16.1,N/A,,Scattered Clouds,330,2012-10-07 07:54:00
4:14 AM,42.6,31.1,64,30.09,10.0,NNW,8.1,-,N/A,,Mostly Cloudy,330,2012-10-07 08:14:00
4:34 AM,42.4,30.0,61,30.10,10.0,WNW,5.8,-,N/A,,Overcast,300,2012-10-07 08:34:00
4:54 AM,42.8,34.0,71,30.10,10.0,North,5.8,-,N/A,,Overcast,350,2012-10-07 08:54:00
5:14 AM,39.9,33.6,78,30.10,10.0,SSE,4.6,-,N/A,,Overcast,150,2012-10-07 09:14:00
5:34 AM,39.4,33.4,79,30.10,10.0,SE,8.1,-,N/A,,Overcast,130,2012-10-07 09:34:00
5:54 AM,38.7,34.2,84,30.10,10.0,SSE,6.9,-,N/A,,Light Drizzle,150,2012-10-07 09:54:00
6:14 AM,37.9,35.1,89,30.10,10.0,SSE,8.1,-,N/A,,Overcast,150,2012-10-07 10:14:00
6:34 AM,37.9,35.8,92,30.10,10.0,SE,5.8,-,N/A,,Overcast,130,2012-10-07 10:34:00
6:54 AM,37.8,36.0,93,30.10,10.0,SSE,5.8,-,N/A,,Overcast,150,2012-10-07 10:54:00
7:14 AM,37.6,35.6,93,30.10,10.0,SSE,6.9,-,N/A,,Overcast,160,2012-10-07 11:14:00
7:54 AM,36.7,35.4,95,30.10,4.0,South,5.8,-,N/A,Rain,Light Rain,170,2012-10-07 11:54:00
8:14 AM,36.5,35.6,97,30.10,10.0,South,5.8,-,N/A,,Overcast,180,2012-10-07 12:14:00
8:34 AM,37.0,35.8,95,30.11,10.0,South,8.1,-,N/A,,Overcast,170,2012-10-07 12:34:00
8:54 AM,37.4,36.0,95,30.12,10.0,South,6.9,-,N/A,Rain,Light Rain,180,2012-10-07 12:54:00
9:14 AM,37.6,36.1,95,30.12,10.0,South,5.8,-,N/A,Rain,Light Rain,190,2012-10-07 13:14:00
9:34 AM,38.3,36.9,95,30.12,10.0,SSE,9.2,-,N/A,Rain,Light Rain,160,2012-10-07 13:34:00
9:54 AM,38.5,36.9,94,30.12,10.0,SSE,5.8,-,N/A,Rain,Rain,160,2012-10-07 13:54:00
10:14 AM,38.5,37.2,95,30.12,7.0,SE,6.9,-,N/A,Rain,Light Rain,140,2012-10-07 14:14:00
10:34 AM,39.4,37.8,94,30.12,10.0,SSE,6.9,-,N/A,,Overcast,150,2012-10-07 14:34:00
10:54 AM,40.1,38.5,94,30.12,10.0,SSE,5.8,-,N/A,Rain,Light Rain,160,2012-10-07 14:54:00
11:14 AM,40.1,38.3,93,30.12,7.0,SSE,3.5,-,N/A,Rain,Rain,150,2012-10-07 15:14:00
11:34 AM,40.1,37.9,92,30.12,5.0,SE,5.8,-,N/A,Rain,Light Rain,140,2012-10-07 15:34:00
11:54 AM,41.0,39.2,93,30.11,10.0,ESE,5.8,-,N/A,,Overcast,120,2012-10-07 15:54:00
12:14 PM,42.8,40.3,91,30.10,10.0,SE,9.2,-,N/A,,Overcast,130,2012-10-07 16:14:00
12:34 PM,43.0,39.7,88,30.10,10.0,SE,6.9,-,N/A,,Overcast,130,2012-10-07 16:34:00
12:54 PM,44.6,40.8,87,30.10,10.0,South,4.6,-,N/A,,Overcast,190,2012-10-07 16:54:00
1:14 PM,44.4,38.5,80,30.10,10.0,SW,6.9,-,N/A,Rain,Rain,220,2012-10-07 17:14:00
1:34 PM,43.9,37.9,80,30.10,10.0,SW,11.5,-,N/A,,Overcast,220,2012-10-07 17:34:00
1:54 PM,41.9,37.2,83,30.09,10.0,South,8.1,-,N/A,,Overcast,190,2012-10-07 17:54:00
2:14 PM,43.7,37.2,78,30.08,10.0,SW,8.1,-,N/A,,Overcast,220,2012-10-07 18:14:00
2:34 PM,45.7,37.9,74,30.08,10.0,WSW,6.9,-,N/A,,Overcast,250,2012-10-07 18:34:00
2:54 PM,44.2,37.6,77,30.07,10.0,WNW,3.5,-,N/A,,Overcast,300,2012-10-07 18:54:00
3:14 PM,44.4,37.4,76,30.07,7.0,South,8.1,-,N/A,,Overcast,190,2012-10-07 19:14:00
3:34 PM,43.7,36.7,76,30.08,10.0,SSW,5.8,-,N/A,,Overcast,210,2012-10-07 19:34:00
3:54 PM,43.7,37.2,78,30.07,10.0,South,4.6,-,N/A,,Overcast,180,2012-10-07 19:54:00
4:14 PM,43.3,36.7,77,30.07,10.0,South,5.8,-,N/A,,Overcast,190,2012-10-07 20:14:00
4:34 PM,42.8,36.9,80,30.07,7.0,SSW,5.8,-,N/A,,Unknown,200,2012-10-07 20:34:00
4:54 PM,43.0,38.3,84,30.06,10.0,SW,6.9,-,N/A,,Overcast,220,2012-10-07 20:54:00
5:14 PM,43.0,37.0,80,30.06,10.0,SW,8.1,-,N/A,,Overcast,220,2012-10-07 21:14:00
5:34 PM,43.2,36.7,78,30.06,10.0,SSW,5.8,-,N/A,,Overcast,210,2012-10-07 21:34:00
5:54 PM,43.9,36.5,75,30.05,10.0,SW,6.9,-,N/A,,Overcast,220,2012-10-07 21:54:00
6:14 PM,44.6,36.0,72,30.06,10.0,SSW,5.8,-,N/A,,Overcast,210,2012-10-07 22:14:00
6:34 PM,44.4,35.2,70,30.06,10.0,SW,5.8,-,N/A,,Overcast,220,2012-10-07 22:34:00
6:54 PM,44.2,34.0,67,30.05,10.0,SSW,5.8,-,N/A,,Mostly Cloudy,200,2012-10-07 22:54:00
7:14 PM,43.2,32.9,67,30.05,10.0,SSW,4.6,-,N/A,,Mostly Cloudy,200,2012-10-07 23:14:00
7:34 PM,42.4,32.0,67,30.05,10.0,South,5.8,-,N/A,,Mostly Cloudy,190,2012-10-07 23:34:00
7:54 PM,41.9,31.5,66,30.05,10.0,South,4.6,-,N/A,,Mostly Cloudy,190,2012-10-07 23:54:00
8:14 PM,41.0,31.6,69,30.05,10.0,South,4.6,-,N/A,,Scattered Clouds,190,2012-10-08 00:14:00
8:34 PM,40.6,30.9,68,30.06,10.0,SSW,5.8,-,N/A,,Scattered Clouds,200,2012-10-08 00:34:00
8:54 PM,40.5,30.6,68,30.06,10.0,South,5.8,-,N/A,,Clear,190,2012-10-08 00:54:00
9:14 PM,40.3,30.2,67,30.06,10.0,South,5.8,-,N/A,,Clear,190,2012-10-08 01:14:00
9:34 PM,40.6,30.2,66,30.06,10.0,South,4.6,-,N/A,,Clear,180,2012-10-08 01:34:00
9:54 PM,38.8,31.1,74,30.06,10.0,SSE,4.6,-,N/A,,Clear,160,2012-10-08 01:54:00
10:14 PM,37.8,31.6,79,30.06,10.0,SSE,6.9,-,N/A,,Clear,160,2012-10-08 02:14:00
10:34 PM,37.8,32.2,80,30.06,10.0,SSE,8.1,-,N/A,,Clear,160,2012-10-08 02:34:00
10:54 PM,38.3,33.4,83,30.06,10.0,South,8.1,-,N/A,,Clear,170,2012-10-08 02:54:00
11:14 PM,38.3,33.8,84,30.06,10.0,South,8.1,-,N/A,,Scattered Clouds,180,2012-10-08 03:14:00
11:34 PM,38.5,34.0,84,30.06,10.0,South,8.1,-,N/A,,Mostly Cloudy,170,2012-10-08 03:34:00
11:54 PM,38.3,33.8,84,30.05,10.0,South,8.1,-,N/A,,Mostly Cloudy,170,2012-10-08 03:54:00